| time (UTC) | temp F | wind direction | speed knots | gust knots | rain 1hr in | rain 24hr in | rain mn in | humidity % | barometer mb |
| 20260503200009 | 53 | 30 | 2.6 | 4.3 | 0.00 | 0.00 | 0.00 | 89 | 1008.8 |
| 20260503194009 | 53 | 30 | 2.6 | 4.3 | 0.00 | 0.00 | 0.00 | 86 | 1008.3 |
| 20260503193508 | 53 | 30 | 2.6 | 4.3 | 0.00 | 0.00 | 0.00 | 86 | 1008.3 |
| 20260503192508 | 53 | 30 | 2.6 | 4.3 | 0.00 | 0.00 | 0.00 | 86 | 1008.2 |
| 20260503192011 | 53 | 30 | 2.6 | 4.3 | 0.00 | 0.00 | 0.00 | 86 | 1008.2 |
| 20260503191509 | 53 | 30 | 2.6 | 4.3 | 0.00 | 0.00 | 0.00 | 86 | 1008.1 |
| 20260503191008 | 53 | 30 | 2.6 | 4.3 | 0.00 | 0.00 | 0.00 | 86 | 1008.1 |
| 20260503190509 | 53 | 30 | 2.6 | 4.3 | 0.00 | 0.00 | 0.00 | 86 | 1008.0 |
| 20260503190011 | 53 | 30 | 2.6 | 4.3 | 0.00 | 0.00 | 0.00 | 86 | 1007.9 |
| 20260503185508 | 53 | 30 | 2.6 | 4.3 | 0.00 | 0.00 | 0.00 | 86 | 1007.8 |
| 20260503185009 | 53 | 30 | 2.6 | 4.3 | 0.00 | 0.00 | 0.00 | 86 | 1007.8 |
| 20260503184009 | 53 | 50 | 3.5 | 6.1 | 0.00 | 0.00 | 0.00 | 86 | 1007.8 |
| 20260503183508 | 53 | 50 | 3.5 | 6.1 | 0.00 | 0.00 | 0.00 | 85 | 1007.6 |
| 20260503183009 | 53 | 44 | 3.5 | 6.1 | 0.00 | 0.00 | 0.00 | 85 | 1007.8 |
| 20260503182509 | 53 | 40 | 3.5 | 7.0 | 0.00 | 0.00 | 0.00 | 85 | 1007.7 |
| 20260503182009 | 53 | 42 | 3.5 | 8.7 | 0.00 | 0.00 | 0.00 | 85 | 1007.7 |
| 20260503181509 | 53 | 42 | 3.5 | 8.7 | 0.00 | 0.00 | 0.00 | 85 | 1007.7 |
| 20260503181009 | 53 | 38 | 3.5 | 7.0 | 0.00 | 0.00 | 0.00 | 84 | 1007.7 |
| 20260503180509 | 54 | 41 | 3.5 | 7.0 | 0.00 | 0.00 | 0.00 | 84 | 1007.7 |
| 20260503180009 | 54 | 45 | 2.6 | 7.0 | 0.00 | 0.00 | 0.00 | 84 | 1007.7 |
| 20260503175509 | 54 | 43 | 2.6 | 7.8 | 0.00 | 0.00 | 0.00 | 84 | 1007.6 |
| 20260503174508 | 54 | 36 | 4.3 | 7.8 | 0.00 | 0.00 | 0.00 | 83 | 1007.6 |
| 20260503174009 | 54 | 33 | 4.3 | 7.8 | 0.00 | 0.00 | 0.00 | 83 | 1007.6 |
| 20260503173508 | 54 | 49 | 1.7 | 1.7 | 0.00 | 0.00 | 0.00 | 83 | 1007.6 |
| 20260503173009 | 54 | 49 | 1.7 | 1.7 | 0.00 | 0.00 | 0.00 | 83 | 1007.5 |
| 20260503172508 | 54 | 49 | 1.7 | 1.7 | 0.00 | 0.00 | 0.00 | 83 | 1007.5 |
| 20260503172009 | 54 | 49 | 1.7 | 1.7 | 0.00 | 0.00 | 0.00 | 83 | 1007.5 |
| 20260503171509 | 54 | 49 | 1.7 | 1.7 | 0.00 | 0.00 | 0.00 | 83 | 1007.5 |
| 20260503171009 | 54 | 49 | 1.7 | 1.7 | 0.00 | 0.00 | 0.00 | 83 | 1007.4 |
| 20260503170508 | 54 | 49 | 1.7 | 1.7 | 0.00 | 0.00 | 0.00 | 83 | 1007.3 |
| 20260503150512 | 54 | 40 | 3.5 | 8.7 | 0.00 | 0.00 | 0.00 | 83 | 1007.2 |
| 20260503130508 | 55 | 46 | 2.6 | 7.0 | 0.00 | 0.07 | 0.00 | 82 | 1007.0 |
| 20260503110509 | 54 | 42 | 2.6 | 5.2 | 0.00 | 0.13 | 0.00 | 87 | 1007.1 |
| 20260503090508 | 51 | 35 | 2.6 | 6.1 | 0.00 | 0.20 | 0.00 | 91 | 1007.1 |
| 20260503081508 | 50 | 40 | 1.7 | 4.3 | 0.00 | 0.20 | 0.00 | 92 | 1007.0 |
| 20260503080508 | 49 | 39 | 1.7 | 5.2 | 0.00 | 0.20 | 0.00 | 92 | 1007.0 |
| 20260503072508 | 49 | 33 | 1.7 | 5.2 | 0.00 | 0.20 | 0.00 | 92 | 1006.8 |
| 20260503072008 | 49 | 33 | 1.7 | 4.3 | 0.00 | 0.20 | 0.00 | 92 | 1006.7 |
| 20260503071508 | 49 | 35 | 1.7 | 6.1 | 0.00 | 0.20 | 0.00 | 92 | 1006.6 |
| 20260503071007 | 49 | 37 | 1.7 | 6.1 | 0.00 | 0.20 | 0.00 | 92 | 1006.6 |
| 20260503070508 | 49 | 37 | 2.6 | 6.1 | 0.00 | 0.20 | 0.00 | 92 | 1006.6 |
| 20260503055007 | 48 | 34 | 1.7 | 4.3 | 0.00 | 0.20 | 0.00 | 92 | 1006.0 |
| 20260503054508 | 48 | 33 | 1.7 | 4.3 | 0.00 | 0.20 | 0.00 | 92 | 1006.0 |
| 20260503054007 | 48 | 32 | 1.7 | 4.3 | 0.00 | 0.20 | 0.00 | 92 | 1006.0 |
| 20260503053507 | 48 | 30 | 1.7 | 4.3 | 0.00 | 0.20 | 0.00 | 92 | 1006.0 |
| 20260503053008 | 48 | 36 | 1.7 | 4.3 | 0.00 | 0.20 | 0.00 | 92 | 1006.0 |
| 20260503052508 | 48 | 36 | 1.7 | 4.3 | 0.00 | 0.20 | 0.00 | 92 | 1005.9 |
| 20260503052007 | 48 | 36 | 1.7 | 4.3 | 0.00 | 0.20 | 0.00 | 92 | 1006.0 |
| 20260503050008 | 48 | 37 | 2.6 | 6.1 | 0.00 | 0.20 | 0.00 | 92 | 1006.0 |
| 20260503045507 | 48 | 35 | 2.6 | 6.1 | 0.00 | 0.20 | 0.00 | 92 | 1006.0 |
| 20260503045008 | 48 | 32 | 1.7 | 4.3 | 0.00 | 0.20 | 0.00 | 92 | 1006.0 |
| 20260503044508 | 48 | 32 | 1.7 | 4.3 | 0.00 | 0.20 | 0.00 | 92 | 1006.0 |
| 20260503044008 | 48 | 32 | 1.7 | 4.3 | 0.00 | 0.20 | 0.00 | 92 | 1006.1 |
| 20260503043008 | 48 | 36 | 1.7 | 5.2 | 0.00 | 0.20 | 0.00 | 92 | 1006.0 |
| 20260503042508 | 47 | 36 | 1.7 | 4.3 | 0.00 | 0.20 | 0.00 | 92 | 1006.0 |
| 20260503042008 | 47 | 34 | 1.7 | 4.3 | 0.00 | 0.20 | 0.00 | 92 | 1006.1 |
| 20260503041007 | 47 | 37 | 1.7 | 3.5 | 0.00 | 0.20 | 0.00 | 92 | 1006.1 |
| 20260503040009 | 47 | 36 | 1.7 | 3.5 | 0.00 | 0.20 | 0.00 | 92 | 1006.2 |
| 20260503035506 | 47 | 36 | 1.7 | 3.5 | 0.00 | 0.20 | 0.00 | 92 | 1006.3 |
| 20260503035008 | 47 | 35 | 1.7 | 2.6 | 0.00 | 0.20 | 0.00 | 92 | 1006.3 |
| 20260503034507 | 47 | 37 | 0.9 | 2.6 | 0.00 | 0.20 | 0.00 | 92 | 1006.3 |
| 20260503034008 | 47 | 38 | 0.9 | 2.6 | 0.00 | 0.20 | 0.00 | 92 | 1006.3 |
| 20260503033508 | 46 | 40 | 0.9 | 2.6 | 0.00 | 0.20 | 0.00 | 92 | 1006.4 |
| 20260503033008 | 46 | 38 | 0.9 | 2.6 | 0.00 | 0.20 | 0.00 | 92 | 1006.4 |
| 20260503032508 | 46 | 38 | 0.9 | 3.5 | 0.00 | 0.20 | 0.00 | 92 | 1006.4 |
| 20260503032008 | 46 | 40 | 1.7 | 3.5 | 0.00 | 0.20 | 0.00 | 91 | 1006.4 |
| 20260503031507 | 46 | 39 | 1.7 | 3.5 | 0.00 | 0.20 | 0.00 | 91 | 1006.4 |
| 20260503030508 | 46 | 39 | 1.7 | 3.5 | 0.00 | 0.20 | 0.00 | 91 | 1006.4 |
| 20260503030008 | 46 | 39 | 1.7 | 3.5 | 0.00 | 0.20 | 0.00 | 91 | 1006.3 |
| 20260503025507 | 46 | 33 | 1.7 | 5.2 | 0.00 | 0.20 | 0.00 | 91 | 1006.3 |
| 20260503025008 | 46 | 32 | 1.7 | 5.2 | 0.00 | 0.20 | 0.00 | 91 | 1006.3 |
| 20260503024507 | 46 | 32 | 1.7 | 3.5 | 0.00 | 0.20 | 0.00 | 91 | 1006.3 |
| 20260503024008 | 46 | 30 | 1.7 | 5.2 | 0.00 | 0.20 | 0.00 | 91 | 1006.3 |
| 20260503023507 | 46 | 32 | 2.6 | 5.2 | 0.00 | 0.20 | 0.00 | 91 | 1006.4 |
| 20260503023008 | 46 | 35 | 2.6 | 5.2 | 0.00 | 0.20 | 0.00 | 91 | 1006.4 |
| 20260503022507 | 46 | 34 | 1.7 | 4.3 | 0.00 | 0.20 | 0.00 | 91 | 1006.4 |
| 20260503022009 | 45 | 35 | 0.9 | 3.5 | 0.00 | 0.20 | 0.00 | 91 | 1006.4 |
| 20260503021508 | 45 | 36 | 0.9 | 3.5 | 0.00 | 0.20 | 0.00 | 91 | 1006.4 |
| 20260503021009 | 45 | 36 | 0.9 | 2.6 | 0.00 | 0.20 | 0.00 | 91 | 1006.4 |
| 20260503020508 | 46 | 36 | 0.9 | 2.6 | 0.00 | 0.20 | 0.00 | 91 | 1006.5 |
| 20260503015508 | 46 | 33 | 0.9 | 1.7 | 0.00 | 0.20 | 0.00 | 91 | 1006.5 |
| 20260503015008 | 46 | 34 | 0.9 | 1.7 | 0.00 | 0.20 | 0.00 | 91 | 1006.5 |
| 20260503014508 | 46 | 37 | 0.9 | 1.7 | 0.00 | 0.20 | 0.00 | 91 | 1006.6 |
| 20260503014008 | 46 | 39 | 0.9 | 1.7 | 0.00 | 0.20 | 0.00 | 91 | 1006.6 |
| 20260503013508 | 46 | 40 | 0.0 | 1.7 | 0.00 | 0.20 | 0.00 | 91 | 1006.6 |
| 20260503013009 | 46 | 38 | 0.0 | 1.7 | 0.00 | 0.20 | 0.00 | 91 | 1006.6 |
| 20260503012508 | 46 | 37 | 0.9 | 1.7 | 0.00 | 0.20 | 0.00 | 90 | 1006.7 |
| 20260503012007 | 46 | 37 | 0.9 | 1.7 | 0.00 | 0.20 | 0.00 | 90 | 1006.7 |
| 20260503011007 | 46 | 36 | 0.9 | 1.7 | 0.00 | 0.20 | 0.00 | 90 | 1006.8 |
| 20260503010008 | 46 | 37 | 0.0 | 0.9 | 0.00 | 0.20 | 0.00 | 90 | 1006.9 |
| 20260503004508 | 46 | 37 | 0.0 | 0.9 | 0.00 | 0.20 | 0.00 | 90 | 1006.9 |
| 20260503004008 | 46 | 37 | 0.0 | 0.9 | 0.00 | 0.20 | 0.00 | 90 | 1006.9 |
| 20260503003508 | 46 | 40 | 0.0 | 0.9 | 0.00 | 0.20 | 0.00 | 90 | 1006.9 |
| 20260503003008 | 46 | 41 | 0.9 | 1.7 | 0.00 | 0.20 | 0.00 | 90 | 1006.9 |
| 20260503002008 | 47 | 36 | 1.7 | 3.5 | 0.00 | 0.20 | 0.00 | 90 | 1006.9 |
| 20260503001008 | 47 | 37 | 1.7 | 4.3 | 0.00 | 0.20 | 0.00 | 90 | 1006.8 |
| 20260503000007 | 47 | 35 | 2.6 | 3.5 | 0.00 | 0.20 | 0.00 | 90 | 1006.8 |
| 20260502235508 | 47 | 35 | 1.7 | 3.5 | 0.00 | 0.20 | 0.00 | 90 | 1006.8 |
| 20260502235008 | 47 | 40 | 1.7 | 3.5 | 0.00 | 0.20 | 0.00 | 90 | 1006.8 |
| 20260502234508 | 47 | 38 | 0.9 | 3.5 | 0.00 | 0.20 | 0.00 | 90 | 1006.8 |
| 20260502234007 | 47 | 34 | 0.9 | 3.5 | 0.00 | 0.20 | 0.00 | 90 | 1006.9 |
| 20260502233507 | 47 | 37 | 1.7 | 2.6 | 0.00 | 0.20 | 0.00 | 90 | 1006.8 |
| 20260502233008 | 47 | 38 | 0.9 | 2.6 | 0.00 | 0.20 | 0.00 | 89 | 1006.8 |
| 20260502232507 | 47 | 35 | 0.9 | 2.6 | 0.00 | 0.20 | 0.00 | 89 | 1006.8 |
| 20260502232009 | 47 | 32 | 0.9 | 2.6 | 0.00 | 0.20 | 0.00 | 90 | 1006.8 |
| 20260502231508 | 47 | 33 | 0.9 | 2.6 | 0.00 | 0.20 | 0.00 | 89 | 1006.8 |
| 20260502231008 | 48 | 34 | 0.9 | 2.6 | 0.00 | 0.20 | 0.00 | 89 | 1006.8 |
| 20260502230508 | 48 | 36 | 0.9 | 3.5 | 0.00 | 0.20 | 0.00 | 89 | 1006.7 |
| 20260502230011 | 48 | 38 | 0.9 | 3.5 | 0.00 | 0.20 | 0.00 | 89 | 1006.7 |
| 20260502225507 | 48 | 41 | 0.9 | 2.6 | 0.00 | 0.20 | 0.20 | 89 | 1006.7 |
| 20260502225008 | 48 | 45 | 0.9 | 1.7 | 0.00 | 0.20 | 0.20 | 89 | 1006.7 |
| 20260502224507 | 48 | 49 | 0.0 | 1.7 | 0.00 | 0.20 | 0.20 | 89 | 1006.7 |
| 20260502224007 | 48 | 48 | 0.0 | 1.7 | 0.00 | 0.20 | 0.20 | 89 | 1006.7 |
| 20260502223507 | 48 | 48 | 0.0 | 1.7 | 0.00 | 0.20 | 0.20 | 89 | 1006.8 |
| 20260502223008 | 48 | 48 | 0.0 | 1.7 | 0.00 | 0.20 | 0.20 | 89 | 1006.8 |
| 20260502222508 | 48 | 44 | 0.0 | 1.7 | 0.00 | 0.20 | 0.20 | 89 | 1006.9 |
| 20260502221508 | 48 | 42 | 0.0 | 1.7 | 0.00 | 0.20 | 0.20 | 88 | 1006.9 |
| 20260502221008 | 48 | 42 | 0.0 | 1.7 | 0.00 | 0.20 | 0.20 | 88 | 1006.9 |
| 20260502220507 | 48 | 42 | 0.0 | 0.9 | 0.00 | 0.20 | 0.20 | 88 | 1007.0 |
| 20260502220009 | 48 | 42 | 0.0 | 0.9 | 0.00 | 0.20 | 0.20 | 88 | 1006.9 |
| 20260502215508 | 48 | 42 | 0.0 | 1.7 | 0.00 | 0.20 | 0.20 | 88 | 1006.9 |
| 20260502215008 | 48 | 42 | 0.0 | 2.6 | 0.00 | 0.20 | 0.20 | 88 | 1006.9 |
| 20260502214508 | 49 | 42 | 0.0 | 2.6 | 0.00 | 0.20 | 0.20 | 88 | 1007.0 |
| 20260502213508 | 49 | 43 | 0.0 | 0.9 | 0.00 | 0.20 | 0.20 | 87 | 1007.0 |
| 20260502213008 | 49 | 43 | 0.0 | 0.9 | 0.00 | 0.20 | 0.20 | 87 | 1007.0 |
| 20260502212507 | 49 | 0 | 0.0 | 0.0 | 0.00 | 0.20 | 0.20 | 87 | 1007.0 |
| 20260502212008 | 49 | 0 | 0.0 | 0.0 | 0.00 | 0.20 | 0.20 | 87 | 1007.0 |
| 20260502211507 | 49 | 0 | 0.0 | 0.0 | 0.00 | 0.20 | 0.20 | 87 | 1007.0 |
| 20260502211007 | 50 | 46 | 0.0 | 0.9 | 0.00 | 0.20 | 0.20 | 87 | 1007.0 |
| 20260502210508 | 50 | 46 | 0.0 | 0.9 | 0.00 | 0.20 | 0.20 | 87 | 1007.0 |
| 20260502210007 | 50 | 0 | 0.0 | 0.0 | 0.00 | 0.20 | 0.20 | 87 | 1007.0 |
| 20260502205507 | 50 | 0 | 0.0 | 0.0 | 0.00 | 0.20 | 0.20 | 87 | 1006.9 |
| 20260502204508 | 50 | 0 | 0.0 | 0.0 | 0.00 | 0.20 | 0.20 | 85 | 1006.8 |
| 20260502204008 | 50 | 0 | 0.0 | 0.0 | 0.00 | 0.20 | 0.20 | 85 | 1006.8 |
| 20260502203508 | 50 | 0 | 0.0 | 0.0 | 0.00 | 0.20 | 0.20 | 85 | 1006.8 |
| 20260502203008 | 50 | 0 | 0.0 | 0.0 | 0.00 | 0.20 | 0.20 | 85 | 1006.7 |
| 20260502202507 | 50 | 0 | 0.0 | 0.0 | 0.00 | 0.20 | 0.20 | 85 | 1006.6 |
| 20260502202007 | 51 | 0 | 0.0 | 0.0 | 0.00 | 0.20 | 0.20 | 84 | 1006.7 |
| 20260502201507 | 51 | 0 | 0.0 | 0.0 | 0.00 | 0.20 | 0.20 | 84 | 1006.6 |
| 20260502201007 | 51 | 0 | 0.0 | 0.0 | 0.00 | 0.20 | 0.20 | 84 | 1006.6 |
| 20260502200507 | 51 | 0 | 0.0 | 0.0 | 0.00 | 0.20 | 0.20 | 84 | 1006.5 |